Location: Newark
(39.9581°N, 97.2014°W)
Time: 17:20:12
(UTC+00:00)

Vanguard 1 - Visible Passes

Search period start: 26 February 2020 00:00
Search period end: 07 March 2020 00:00
Orbit: 650 x 3833 km, 34.2° (Epoch: 25 February)

Date Brightness Start Highest point End Pass type
(mag) Time Alt. Az. Time Alt. Az. Time Alt. Az.
26 Feb 14.2 09:17:41 10° SSE 09:25:57 13° SE 09:34:22 10° ESE visible
26 Feb 13.8 11:29:05 10° SSW 11:49:14 40° SE 12:07:05 10° E visible
27 Feb 14.1 09:33:15 10° SSE 09:46:31 20° SE 10:00:06 10° E visible
27 Feb 13.6 11:49:00 10° SSW 12:10:16 47° SSE 12:28:40 10° E visible
28 Feb 13.9 09:51:05 10° S 10:07:06 26° SE 10:23:34 10° E visible
28 Feb 13.5 12:09:19 10° SW 12:31:23 54° SSE 12:50:05 10° E visible
29 Feb 13.8 10:09:57 10° SSW 10:27:46 33° SE 10:46:06 10° E visible
29 Feb 13.4 12:29:57 10° SW 12:52:38 61° SSE 13:11:22 10° E visible
01 Mar 14.0 08:18:44 10° SE 08:26:04 13° SE 08:33:51 10° ESE visible
01 Mar 13.6 10:29:26 10° SSW 10:48:31 41° SE 11:08:06 10° E visible
02 Mar 13.8 08:36:33 13° SSE 08:46:23 19° SE 08:59:52 10° E visible
02 Mar 13.5 10:49:22 10° SSW 11:09:25 48° SSE 11:29:48 10° E visible
03 Mar 13.6 08:56:54 18° SSE 09:06:45 26° SE 09:23:29 10° E visible
03 Mar 13.3 11:09:39 10° SW 11:30:28 55° SSE 11:51:19 10° E visible
04 Mar 13.4 09:17:08 23° S 09:27:13 33° SE 09:46:08 10° E visible
04 Mar 13.2 11:30:14 10° SW 11:51:39 62° SSE 12:12:43 10° E visible
05 Mar 13.9 07:24:30 11° SE 07:26:22 11° ESE 07:31:50 10° ESE visible
05 Mar 13.3 09:37:14 26° S 09:47:49 41° SE 10:08:15 10° E visible
05 Mar 13.2 11:51:04 10° WSW 12:12:59 67° SSE 12:34:03 10° E visible
06 Mar 13.7 07:44:31 18° SE 07:46:31 18° SE 07:58:41 10° E visible
06 Mar 13.1 09:57:15 28° SSW 10:08:35 48° SE 10:30:04 10° E visible
06 Mar 13.2 12:12:04 10° WSW 12:34:25 72° SSE 12:55:20 10° E visible
